Find Starlink 11295

NORAD ID: 61536 Int'l Des: 2024-184 Owner: SPXS Country: US Constellation: starlink operational
LEOCIRCULAR

当前视图

正在加载3D地球...

About Starlink 11295

Starlink 11295 (NORAD 61536) is a starlink constellation satellite (v2 mini d2c) launched Oct 15, 2024 by SPXS of US. It operates in LEO, CIRCULAR orbit with a mass of 960.00 kg.

关于 Starlink 11295

正在加载描述...

即将过境

Passes for default location (London). Set your location on the main map for personalized predictions.

高度历史

Loading altitude history...

两行轨道根数

1 61536U 24184E 26195.61566278 .00000262 00000-0 70237-5 0 9998
2 61536 53.1591 330.4816 0001429 39.2612 320.8509 15.69714687100351
Epoch: Jul 14, 2026 • Age: 7 hours

当前状态

高度 371.8 km
远地点 / 近地点 N/A
速度 7.69 km/s
星下点 -35.11°S, 79.84°W
发射日期 Oct 15, 2024
运行时间 1.7 years
类型 internet

技术详情

分类 Payload
质量 960.00 kg
干质量 910.00 kg
总质量 960.00 kg
长度 0.30 m
直径 4.10 m
跨度 29.00 m
形状 Box + pan
制造商 SPXS
平台类型 Starlink V2MD
阶段状态 In Orbit
所有者/国家 SPXS/US

Most Searched